Location: Peterborough
(44.3091°N, 78.3197°W)
Time: 06:18:27
(UTC-04:00)

SR - Visible Passes

Search period start: 22 March 2023 00:00
Search period end: 01 April 2023 00:00
Orbit: 583 x 866 km, 66.7° (Epoch: 21 March)

Date Brightness Start Highest point End Pass type
(mag) Time Alt. Az. Time Alt. Az. Time Alt. Az.
22 Mar ? 03:17:11 12° ENE 03:17:11 12° ENE 03:17:34 10° ENE visible
22 Mar ? 04:56:32 42° NNW 04:56:32 42° NNW 05:00:04 10° NNE visible
23 Mar ? 04:07:14 31° NNE 04:07:14 31° NNE 04:09:32 10° NNE visible
23 Mar ? 05:46:34 14° WNW 05:47:37 15° NW 05:50:11 10° N visible
24 Mar ? 03:17:54 15° NE 03:17:54 15° NE 03:18:41 10° NE visible
24 Mar ? 04:57:14 25° NNW 04:57:14 25° NNW 05:00:17 10° N visible
25 Mar ? 04:07:51 27° N 04:07:51 27° N 04:09:59 10° NNE visible
26 Mar ? 03:18:27 16° NE 03:18:27 16° NE 03:19:23 10° NE visible
26 Mar ? 04:57:46 16° NW 04:57:46 16° NW 05:00:13 10° N visible
27 Mar ? 04:08:19 21° N 04:08:19 21° N 04:10:13 10° NNE visible
28 Mar ? 03:18:50 17° NNE 03:18:50 17° NNE 03:19:51 10° NNE visible
28 Mar ? 04:58:10 10° NW 04:58:23 10° NW 04:59:12 10° NNW visible
29 Mar ? 04:08:39 16° NNW 04:08:39 16° NNW 04:10:12 10° N visible
30 Mar ? 03:19:06 16° N 03:19:06 16° N 03:20:06 10° NNE visible
31 Mar ? 02:29:32 11° NNE 02:29:32 11° NNE 02:29:41 10° NNE visible
31 Mar ? 04:08:51 11° NNW 04:08:51 11° NNW 04:09:33 10° NNW visible
